Zurück zum Katalog

STARLINK-3638

AktivKommunikationVLEO
NORAD 51786·PAYLOAD·🇺🇸 United States

Gestartet Feb 25, 2022 von Vandenberg Space Force Base

Loading…

Nächste Überflüge (nächste 24 Stunden)

TLE

AktuellSource: CelesTrak SupGP

Epoche: Sep 14, 2026, 22:02 UTC

1 51786C 22017U   26257.91854167 -.00004641  00000+0 -13715-3 0  2575
2 51786  53.1570 205.4605 0001364 102.4127  87.5775 15.34386939    14

Verfolge STARLINK-3638 in Echtzeit mit AllMySat

Download on the App Store